CZ-4B DEB

Satellite information

Favourite Embed

Satellite Type and Status

DEBRISIN ORBIT

Key statistics

Satellite CZ-4B DEB at a glance.

Uptime

5234

Days in orbit

Revolutions

≈ 13.5

Per day

Orbit

SSO

Sun Synchronous Orbit

Inclination

99.9

Latest

Satellite identification and parameters

Extended collection of information and parameters for CZ-4B DEB.

Object identification

Identified? True

Debris? True

Object name: CZ-4B DEB

International designator: 2011-043E

Object number (NORAD): 38315

Object ID (CCSDS): 38315

Country: PEOPLES REPUBLIC OF CHINA (PRC)

Current information (Y/N): Y

RCS size: SMALL

Orbital parameters

Period: 106.484 minutes

Inclination: 99.8555 deg

SMA: 7441.903 km

Apoapsis: 1225.334 km

Periapsis: 902.202 km

RAAN: 276.9338 deg

Eccentricy: 0.02171034

Argument of periapsis: 84.8738 deg

Mean anomaly: 277.7135 deg

Mean motion: 13.52311535 rev/day

Mean motion (dot): 0.00000394 rev/day2

B* drag term: 0.00057135263 1/REarth

Two-line elements (TLE)

Creation date: Dec. 11, 2025, 10:54 a.m.

Reference frame: TEME

Reference center: EARTH

Epoch: Dec. 11, 2025, 1:19 a.m. UTC

TLE line 0: 0 CZ-4B DEB

TLE line 1: 1 38315U 11043E 25345.05533006 .00000394 00000-0 57135-3 0 9990

TLE line 2: 2 38315 99.8555 276.9338 0217103 84.8738 277.7135 13.52311535603171

Live tracking on map

Real-time ground track for satellite CZ-4B DEB.

In-orbit conjunctions

A list of the most updated potential collisions computed for object CZ-4B DEB.

Target Orbit TCA Probability of collision Miss distance Type
COSMOS 1011 LEO 2024-10-29 05:19:01 0.0001493179 353.0 (m) PAYLOAD

Associated space launch

CZ-4B DEB was lifted into orbit during the mission ‘Long March 4B | Hai Yang 2A’, on board a Long March 4B space rocket.

The launch took place on Aug. 15, 2011, 10:57 p.m. from Launch Complex 7.

For more information about the launch, click the button.

Launch to space Long March 4B | Hai Yang 2A
Long March 4B | Hai Yang 2A

Agency: N/A

Status: Launch Successful

Launch date: Aug. 15, 2011, 10:57 p.m. UTC

Rocket: Long March 4B

Launch pad: Launch Complex 7

Location: Taiyuan Satellite Launch Center, People's Republic of China

...

Latest news about this satellite

There are no fresh news available about this satellite. Check back as we update our databases every day.


Newsletter sign-up

Weekly statistics, charts and insights to help you stay on top of the space industry.